Vertical_Velocity
2 4 4 2 -3 2 7 6 1 9 -1 0 -0 2 2 2 -1 1 -0 0 -2 -0
4 4 4 4 3 3 1 4 5 3 3 -3 -1 -5 -1 1 -1 -2 -1 -1 -0 -0
4 4 2 7 5 3 3 1 2 -1 -0 -1 -1 1 -1 -0 1 1 0 -2 1 -3
5 2 -1 0 3 -0 -0 2 2 -1 -0 -1 1 -1 -1 -5 -3 -8 -3 -1 -2 -4
5 4 4 1 -0 1 2 -1 1 1 1 -1 -1 -2 -5 -2 0 -0 -3 0 3 -1
1 2 -1 -2 -0 1 1 1 2 2 -2 -5 -9 -7 -0 -2 -2 0 -0 1 0 -2
2 -1 -0 -1 0 1 -1 -4 -3 -4 -5 -2 4 0 -3 -2 -4 0 -3 -3 -6 2
-0 1 0 -1 -3 -3 -1 1 2 3 -2 1 -2 3 -0 -1 1 3 -1 -4 2 -3
-0 -2 -3 -5 -5 1 -1 4 1 -3 1 0 0 -1 1 4 -1 -0 -1 0 0 -1
-1 -1 -1 -1 0 3 8 1 -3 1 -1 -3 -4 -3 -1 0 1 -2 -2 -2 -1 -2
1 3 -1 4 2 10 0 -6 0 -4 -4 -3 -0 -0 1 -0 -1 1 -0 -0 -1 1
4 2 7 15 29 11 -6 -3 -5 -3 -4 -3 -0 -2 -0 -1 -2 -1 -0 0 -0 0
8 -1 19 6 -7 5 1 -5 -2 -2 1 1 -2 -2 -4 -4 -1 -2 -2 0 -1 1
10 15 5 2 0 3 -3 -1 -1 -5 -3 -4 1 -1 -2 -2 -1 -1 -2 -1 -1 -1
Height
3131 3130 3129 3127 3124 3120 3116 3113 3110 3106 3102 3097 3093 3089 3085 3081 3076 3070 3065 3059 3054 3050
3125 3125 3124 3121 3118 3114 3110 3106 3103 3099 3094 3089 3086 3081 3075 3071 3066 3061 3055 3050 3045 3041
3120 3119 3117 3114 3110 3107 3104 3100 3095 3091 3085 3080 3076 3073 3068 3063 3057 3051 3046 3041 3036 3031
3116 3113 3110 3106 3104 3101 3098 3093 3087 3083 3075 3071 3069 3065 3059 3053 3048 3043 3038 3033 3028 3024
3109 3106 3103 3100 3096 3092 3089 3084 3078 3072 3067 3062 3059 3056 3051 3046 3041 3035 3030 3026 3022 3018
3100 3097 3093 3090 3087 3083 3078 3072 3066 3061 3057 3054 3051 3047 3043 3038 3033 3028 3024 3020 3017 3013
3090 3086 3083 3080 3076 3071 3066 3060 3055 3050 3050 3047 3042 3038 3035 3031 3025 3021 3017 3014 3010 3007
3081 3078 3074 3070 3066 3060 3055 3049 3044 3045 3044 3039 3036 3033 3028 3023 3019 3015 3012 3008 3004 3000
3074 3070 3065 3060 3055 3050 3043 3039 3042 3040 3036 3032 3029 3025 3021 3017 3013 3009 3006 3002 2998 2994
3065 3060 3055 3050 3044 3039 3034 3039 3037 3033 3029 3025 3022 3019 3014 3010 3006 3002 2999 2995 2991 2987
3055 3050 3044 3039 3034 3029 3033 3032 3029 3026 3022 3019 3016 3011 3007 3003 2999 2995 2991 2988 2984 2980
3045 3039 3034 3028 3025 3028 3027 3024 3021 3019 3015 3011 3008 3004 3000 2997 2992 2988 2984 2980 2976 2973
3029 3026 3025 3027 3028 3023 3018 3016 3014 3010 3007 3003 3000 2997 2993 2989 2985 2981 2977 2974 2969 2966
3033 3028 3028 3024 3019 3015 3011 3008 3006 3003 2999 2995 2992 2989 2985 2981 2978 2974 2971 2967 2963 2960